THOR ABLESTAR DEB, 324

Orbit data source: Space-Track

THOR ABLESTAR DEB, 324 is space debris in LEO originally from a launch on Thu, 29 Jun 1961 UTC launched from the Air Force Eastern Test Range (AFETR). Debris objects in space refer to the collection of defunct objects orbiting the Earth. Examples of debris include non-operational satellites, rocket bodies, and fragments generated from explosions, collisions, or faulty payload assembly.

Loading next visibility...
Identifier
324, 1961-015DA
Orbit
LEO
Last TLE update
14 hours ago
Origin
Manufacturer
Unknown
Mission
Spacecraft
Bus & Motor
Unknown
Mass
Unknown
Launch date (UTC)
1961-06-29 (64 years ago)
Launch vehicle
Unknown
Launch site
Air Force Eastern Test Range (AFETR)
Object type
Payload
Rocket body
Debris
Shape & HBR
Unknown
Radar Cross Section
Small (<0.1 m²)

Expand to show TLE details & history

TLE from 14 hours ago
0 THOR ABLESTAR DEB
1 00324U 61015DA  25182.45011695  .00000236  00000-0  16577-3 0  9991
2 00324  66.8655 197.4616 0075327 285.2590  74.0182 14.12906937273518
Epoch: 2025-07-01T10:48Z
TLE epoch observation values (Epoch: 2025-07-01T10:48:10.104Z)
Latitude
-0.00003°
Longitude
115.67409°
Altitude
836.933 km
Speed
7.442 km/s
True Right ascension
13h 09m 50s
True Declination
0° 00' 00"
Sunlit
Object was in daylight at epoch
Visualization orbit readout
Latitude
1.71902°
Longitude
-66.576°
Altitude
866.681 km
Speed
7.412 km/s
Apparent Right ascension
00h 58m 37s
Apparent Declination
-17° 37' 01"
Sunlit
Object is in daylight
Visualization observer readout
Local Sidereal Time
12:55:21
Azimuth
357.944° N
Elevation
-67.69°
Doppler factor
1
Orbital elements
Apogee altitude
902.241 km
Perigee altitude
793.379 km
Semi-major axis
7,225.947 km
Eccentricity
0.00753
Inclination
66.8655°
RAAN
197.4616°
Arg. of periapsis
285.259°
True anomaly
Unknown
Mean anomaly
74.0182°
Eccentric anomaly
Unknown
Mean motion
3.53347 °/min
Orbital period
101.88 mins
BSTAR
0.00016577
Loading maneuver chart data...
Loading SW <> Apogee altitude chart data...

THOR ABLESTAR DEB Visibility forecast

Observer location: undefined°, undefined°

Span
Click to sort rows by Start time (UTC) header in descending order
Start Az.
Max El. time (UTC)
Max El. Az.
Max El.
End time (UTC)
End Az.
10 mins2025-07-02 02:12:28.514Z187.372° SSW2025-07-02 02:17:28.514Z110.348° ESE39.118°2025-07-02 02:22:28.514Z39.277° NE
7 mins2025-07-02 03:59:28.514Z270.415° WNW2025-07-02 04:02:28.514Z312.126° NW23.754°2025-07-02 04:06:28.514Z2.144° NNE
10 mins2025-07-02 11:07:28.514Z343.131° N2025-07-02 11:12:28.514Z44.684° NE35.569°2025-07-02 11:17:28.514Z124.013° SE
8 mins2025-07-02 12:53:28.514Z301.8° NW2025-07-02 12:57:28.514Z249.361° W25.194°2025-07-02 13:01:28.514Z200.141° SSW
|